Home   Weather   Boston   Past weeks

Flag for USA Past Weather in Boston, Massachusetts, USA — Yesterday and Last 2 Weeks

Now
72 °F

Overcast.


Feels Like: 74 °F
Forecast: 58 / 69 °F
Wind: 22 mph from Southwest

Location: Logan International Airport

Current Time: Sep 22, 2018 at 3:20:31 am

Latest Report: Sep 22, 2018 at 2:01 am


Visibility: 10 mi

Pressure: 29.87 "Hg

Humidity: 71%

Dew Point: 62 °F

Location of BostonLocation

Past Weather in Boston — Graph

°F

Boston Temperature Yesterday

Maximum temperature yesterday: 71 °F (at 12:54 pm)
Minimum temperature yesterday: 62 °F (at 1:54 am)
Average temperature yesterday: 66 °F

High & Low Weather Summary for the Past Weeks

 TemperatureHumidityPressure
High83 °F (Sep 17, 1:54 pm)97% (Sep 11, 2:40 am)30.36 "Hg (Sep 11, 2:40 am)
Low57 °F (Sep 9, 6:54 am)44% (Sep 8, 7:54 pm)29.70 "Hg (Sep 18, 11:00 am)
Average67 °F80%30.16 "Hg
* Reported Sep 7 2:54 am — Sep 22 2:01 am, Boston. Weather by CustomWeather, © 2018

Note: Actual official high and low records may vary slightly from our data, if they occured in-between our weather recording intervals... More about our weather records

Advertising

Boston Weather History for the Previous 24 Hours

Scroll right to see more
 ConditionsComfort  
Time TempWeatherWind HumidityBarometerVisibility
2:01 am
Sat, Sep 22
72 °FOvercast.22 mph71%29.87 "Hg10 mi
12:54 am70 °FPartly cloudy.20 mph73%29.87 "Hg10 mi
11:54 pm
Fri, Sep 21
69 °FPassing clouds.21 mph79%29.92 "Hg10 mi
10:54 pm69 °FPartly cloudy.17 mph79%29.95 "Hg10 mi
9:54 pm68 °FPartly cloudy.18 mph78%29.97 "Hg10 mi
8:54 pm67 °FPartly cloudy.16 mph79%29.97 "Hg10 mi
7:54 pm67 °FMostly cloudy.17 mph76%29.99 "Hg10 mi
6:54 pm66 °FMostly cloudy.18 mph73%30.02 "Hg10 mi
5:54 pm67 °FOvercast.15 mph71%30.05 "Hg10 mi
4:54 pm68 °FOvercast.17 mph65%30.07 "Hg10 mi
3:54 pm70 °FPartly sunny.17 mph57%30.10 "Hg10 mi
2:54 pm70 °FBroken clouds.14 mph61%30.12 "Hg10 mi
1:54 pm71 °FBroken clouds.12 mph57%30.16 "Hg10 mi
12:54 pm71 °FScattered clouds.10 mph55%30.19 "Hg10 mi
11:54 am69 °FScattered clouds.10 mph55%30.22 "Hg10 mi
10:54 am67 °FScattered clouds.9 mph61%30.25 "Hg10 mi
9:54 am66 °FScattered clouds.12 mph63%30.29 "Hg10 mi
8:54 am64 °FScattered clouds.8 mph68%30.30 "Hg10 mi
7:54 am62 °FPartly sunny.8 mph73%30.31 "Hg10 mi
6:54 am62 °FPartly sunny.8 mph73%30.30 "Hg10 mi
5:54 am62 °FPartly cloudy.7 mph70%30.29 "Hg10 mi
4:54 am62 °FMostly cloudy.6 mph73%30.29 "Hg10 mi
3:54 am62 °FMostly cloudy.7 mph75%30.29 "Hg10 mi
Weather by CustomWeather, © 2018

See weather overview